User: anonymous   Login
Location: Unspecified
(0.0000°N, 0.0000°E)
Time: 00:53:02
(UTC+00:00)
Language:

STARLINK-3790 - Orbit

View from above orbital plane
View from above orbital plane
View from above satellite
View from above satellite

Ground track
Ground track

The orbit is defined by the following mean orbital elements,

1 52274U          26145.38112802 +.00000000 +00000-0 +34395-4 0 00004
2 52274  53.2137 124.8367 0001284  82.9273 277.1865 15.08840594    00
Epoch (UTC): 25 May 2026 09:08:49
Eccentricity: 0.0001284
inclination: 53.2137°
perigee height: 539 km
apogee height: 541 km
right ascension of ascending node: 124.8367°
argument of perigee: 82.9273°
revolutions per day: 15.08840594
mean anomaly at epoch: 277.1865°

The dashed part of the orbit path shows where the satellite is in the earth's shadow,  

DLR